Location: Arthez
(43.0833°N, 0.2500°W)
Time: 04:19:58
(UTC+00:00)

USA 229 - Pass Details

Date: 23 October 2021
Orbit: 946 x 1266 km, 63.4° (Epoch: 25 November)

Event Time Altitude Azimuth Distance (km) Brightness Sun altitude
Rises 18:07:31 0° 193° (SSW) 3,611 6.7 -12.0°
Reaches altitude 10° 18:10:06 10° 188° (S) 2,687 6.0 -12.4°
Maximum altitude 18:16:02 46° 117° (ESE) 1,310 3.8 -13.5°
Drops below altitude 10° 18:22:21 10° 46° (NE) 2,860 5.5 -14.7°
Enters shadow 18:22:24 10° 46° (NE) 2,878 5.5 -14.7°
